Weather History for K2D5 - December, 2011

Change the Weather History Date:

Saturday, December 17, 2011

  Actual Average (KABR) Record (KABR)
Temperature  
Mean Temperature 25 °F 15 °F  
Max Temperature 35 °F 25 °F 53 °F (1939)
Min Temperature 15 °F 5 °F -24 °F (1951)
Degree Days  
Heating Degree Days 40 50  
Month to date heating degree days 807  
Since 1 July heating degree days 2770  
Cooling Degree Days 0 0  
Month to date cooling degree days 0  
Year to date cooling degree days 525  
Moisture  
Dew Point 21 °F    
Average Humidity 93    
Maximum Humidity 100    
Minimum Humidity 70    
Precipitation  
Precipitation 0.00 in 0.01 in 1.00 in (1902)
Month to date precipitation 0.28  
Year to date precipitation 21.48  
Snow  
Snow 0.00 in - - ()
Month to date snowfall  
Since 1 July snowfall  
Snow Depth -    
Sea Level Pressure  
Sea Level Pressure 30.13 in    
Wind  
Wind Speed 8 mph (SSW)    
Max Wind Speed 13 mph    
Max Gust Speed -    
Visibility 10 miles    
Events      
T = Trace of Precipitation, MM = Missing Value Source: NWS Daily Summary

Daily Weather History Graph

Daily Weather History Graph

Search for Another Location

Airport or City:

Trip Planner

Search our weather history database for the weather conditions in past years. The results will help you decide how hot, cold, wet, or windy it might be!

Date:

Astronomy

Dec. 17, 2011 Rise Set
Actual Time 8:09 AM CST 4:47 PM CST
Civil Twilight 7:34 AM CST 5:22 PM CST
Nautical Twilight 6:56 AM CST 6:00 PM CST
Astronomical Twilight 6:19 AM CST 6:36 PM CST
Moon No Moon Rise 12:02 PM CST (12/17)
Length of Visible Light 9h 47m
Length of Day
8h 37m
Waning Gibbous, 53% of the Moon is Illuminated
Dec 17
Waning Gibbous
Dec 17
Last Quarter
Dec 24
New
Jan 1
First Quarter
Jan 9
Full

Hourly Weather History & Observations

Time (CST) Temp. Windchill Dew Point Humidity Pressure Visibility Wind Dir Wind Speed Gust Speed Precip Events Conditions
12:15 AM 17.6 °F 7.3 °F 17.6 °F 100% 30.23 in 10.0 mi South 8.1 mph - N/A   Overcast
12:35 AM 17.6 °F 9.3 °F 17.6 °F 100% 30.22 in 10.0 mi SSW 5.8 mph - N/A   Overcast
12:55 AM 17.6 °F 7.3 °F 17.6 °F 100% 30.21 in 10.0 mi South 8.1 mph - N/A   Overcast
1:15 AM 17.6 °F 8.2 °F 17.6 °F 100% 30.20 in 10.0 mi South 6.9 mph - N/A   Unknown
1:35 AM 17.6 °F 7.3 °F 17.6 °F 100% 30.19 in 10.0 mi South 8.1 mph - N/A   Unknown
1:55 AM 15.8 °F 4.2 °F 15.8 °F 100% 30.18 in 10.0 mi South 9.2 mph - N/A   Unknown
2:15 AM 15.8 °F 3.4 °F 15.8 °F 100% 30.18 in 10.0 mi SSW 10.4 mph - N/A   Unknown
2:35 AM 15.8 °F 2.1 °F 15.8 °F 100% 30.18 in 10.0 mi SSW 12.7 mph - N/A   Unknown
2:55 AM 15.8 °F 2.7 °F 15.8 °F 100% 30.17 in 10.0 mi SSW 11.5 mph - N/A   Clear
3:15 AM 17.6 °F 4.3 °F 17.6 °F 100% 30.16 in 10.0 mi SSW 12.7 mph - N/A   Clear
3:35 AM 17.6 °F 5.7 °F 17.6 °F 100% 30.16 in 10.0 mi SSW 10.4 mph - N/A   Clear
3:55 AM 17.6 °F 7.3 °F 17.6 °F 100% 30.15 in 10.0 mi SSW 8.1 mph - N/A   Clear
4:15 AM 17.6 °F 5.7 °F 17.6 °F 100% 30.14 in 10.0 mi SSW 10.4 mph - N/A   Unknown
4:35 AM 17.6 °F 5.0 °F 17.6 °F 100% 30.12 in 10.0 mi South 11.5 mph - N/A   Unknown
4:55 AM 17.6 °F 5.0 °F 17.6 °F 100% 30.12 in 10.0 mi SSW 11.5 mph - N/A   Unknown
5:15 AM 17.6 °F 4.3 °F 17.6 °F 100% 30.11 in 10.0 mi SSW 12.7 mph - N/A   Unknown
5:35 AM 17.6 °F 4.3 °F 17.6 °F 100% 30.11 in 10.0 mi SSW 12.7 mph - N/A   Unknown
5:55 AM 17.6 °F 4.3 °F 17.6 °F 100% 30.10 in 10.0 mi South 12.7 mph - N/A   Clear
6:15 AM 17.6 °F 5.0 °F 17.6 °F 100% 30.11 in 10.0 mi SSW 11.5 mph - N/A   Clear
6:35 AM 17.6 °F 5.7 °F 17.6 °F 100% 30.10 in 10.0 mi SSW 10.4 mph - N/A   Clear
6:55 AM 17.6 °F 5.0 °F 17.6 °F 100% 30.10 in 10.0 mi SSW 11.5 mph - N/A   Unknown
7:15 AM 17.6 °F 4.3 °F 17.6 °F 100% 30.09 in 10.0 mi SSW 12.7 mph - N/A   Unknown
7:35 AM 17.6 °F 5.0 °F 17.6 °F 100% 30.09 in 10.0 mi SSW 11.5 mph - N/A   Unknown
7:55 AM 17.6 °F 5.0 °F 17.6 °F 100% 30.09 in 10.0 mi SW 11.5 mph - N/A   Clear
8:15 AM 15.8 °F 5.1 °F 15.8 °F 100% 30.11 in 10.0 mi SSW 8.1 mph - N/A   Clear
8:35 AM 17.6 °F 7.3 °F 17.6 °F 100% 30.11 in 10.0 mi SW 8.1 mph - N/A   Clear
9:15 AM 15.8 °F 7.2 °F 15.8 °F 100% 30.13 in 10.0 mi SW 5.8 mph - N/A   Clear
9:35 AM 15.8 °F 8.6 °F 15.8 °F 100% 30.13 in 10.0 mi SW 4.6 mph - N/A   Unknown
9:55 AM 17.6 °F 7.3 °F 17.6 °F 100% 30.14 in 10.0 mi SSW 8.1 mph - N/A   Unknown
10:15 AM 19.4 °F 11.5 °F 19.4 °F 100% 30.15 in 10.0 mi SSW 5.8 mph - N/A   Unknown
10:35 AM 23.0 °F 14.7 °F 23.0 °F 100% 30.15 in 10.0 mi SW 6.9 mph - N/A   Unknown
10:55 AM 24.8 °F 17.9 °F 24.8 °F 100% 30.16 in 10.0 mi SW 5.8 mph - N/A   Unknown
11:15 AM 26.6 °F 18.2 °F 24.8 °F 93% 30.15 in 10.0 mi SW 8.1 mph - N/A   Unknown
11:35 AM 26.6 °F 20.0 °F 24.8 °F 93% 30.16 in 10.0 mi SW 5.8 mph - N/A   Unknown
11:55 AM 28.4 °F 22.2 °F 26.6 °F 93% 30.15 in 10.0 mi SW 5.8 mph - N/A   Unknown
12:15 PM 28.4 °F 23.3 °F 26.6 °F 93% 30.15 in 10.0 mi South 4.6 mph - N/A   Unknown
12:35 PM 28.4 °F 22.2 °F 26.6 °F 93% 30.15 in 10.0 mi WSW 5.8 mph - N/A   Unknown
12:55 PM 32.0 °F 24.8 °F 26.6 °F 80% 30.14 in 10.0 mi West 8.1 mph - N/A   Unknown
1:15 PM 32.0 °F 23.6 °F 26.6 °F 80% 30.14 in 10.0 mi West 10.4 mph - N/A   Unknown
1:35 PM 32.0 °F 23.6 °F 24.8 °F 75% 30.14 in 10.0 mi West 10.4 mph - N/A   Unknown
1:55 PM 33.8 °F 25.3 °F 26.6 °F 75% 30.13 in 10.0 mi West 11.5 mph - N/A   Unknown
2:35 PM 35.6 °F 29.9 °F 26.6 °F 70% 30.13 in 10.0 mi West 6.9 mph - N/A   Clear
2:55 PM 35.6 °F 30.7 °F 26.6 °F 70% 30.13 in 10.0 mi West 5.8 mph - N/A   Clear
3:15 PM 35.6 °F 29.9 °F 26.6 °F 70% 30.12 in 10.0 mi West 6.9 mph - N/A   Clear
3:35 PM 35.6 °F 29.9 °F 26.6 °F 70% 30.12 in 10.0 mi West 6.9 mph - N/A   Clear
3:55 PM 35.6 °F 31.7 °F 26.6 °F 70% 30.12 in 10.0 mi WSW 4.6 mph - N/A   Clear
4:15 PM 33.8 °F 29.6 °F 26.6 °F 75% 30.13 in 10.0 mi WSW 4.6 mph - N/A   Clear
4:35 PM 33.8 °F - 26.6 °F 75% 30.12 in 10.0 mi Calm Calm - N/A   Clear
4:55 PM 32.0 °F - 26.6 °F 80% 30.11 in 10.0 mi Calm Calm - N/A   Clear
5:15 PM 32.0 °F 27.5 °F 26.6 °F 80% 30.11 in 10.0 mi South 4.6 mph - N/A   Clear
5:35 PM 32.0 °F 26.4 °F 26.6 °F 80% 30.11 in 10.0 mi South 5.8 mph - N/A   Clear
5:55 PM 24.8 °F 17.9 °F 23.0 °F 93% 30.11 in 10.0 mi SSE 5.8 mph - N/A   Unknown
6:15 PM 24.8 °F 17.9 °F 24.8 °F 100% 30.11 in 10.0 mi SSW 5.8 mph - N/A   Unknown
6:35 PM 24.8 °F 17.9 °F 24.8 °F 100% 30.10 in 10.0 mi SSW 5.8 mph - N/A   Unknown
6:55 PM 23.0 °F 17.0 °F 23.0 °F 100% 30.10 in 10.0 mi South 4.6 mph - N/A   Unknown
7:15 PM 21.2 °F 13.6 °F 21.2 °F 100% 30.09 in 10.0 mi South 5.8 mph - N/A   Unknown
7:35 PM 19.4 °F 8.6 °F 19.4 °F 100% 30.09 in 10.0 mi South 9.2 mph - N/A   Unknown
7:55 PM 17.6 °F 8.2 °F 17.6 °F 100% 30.08 in 10.0 mi South 6.9 mph - N/A   Clear
8:15 PM 19.4 °F 11.5 °F 19.4 °F 100% 30.08 in 10.0 mi South 5.8 mph - N/A   Clear
8:35 PM 17.6 °F 8.2 °F 17.6 °F 100% 30.06 in 10.0 mi South 6.9 mph - N/A   Clear
8:55 PM 17.6 °F 5.7 °F 17.6 °F 100% 30.05 in 10.0 mi South 10.4 mph - N/A   Clear
9:15 PM 21.2 °F 10.1 °F 21.2 °F 100% 30.05 in 10.0 mi South 10.4 mph - N/A   Clear
9:35 PM 24.8 °F 14.0 °F 23.0 °F 93% 30.05 in 10.0 mi South 11.5 mph - N/A   Unknown
9:55 PM 23.0 °F 12.4 °F 23.0 °F 100% 30.04 in 10.0 mi South 10.4 mph - N/A   Unknown
10:15 PM 24.8 °F 16.1 °F 23.0 °F 93% 30.02 in 10.0 mi South 8.1 mph - N/A   Unknown
10:35 PM 24.8 °F 14.6 °F 24.8 °F 100% 30.01 in 10.0 mi South 10.4 mph - N/A   Unknown
10:55 PM 23.0 °F 13.9 °F 21.2 °F 93% 30.00 in 10.0 mi SSE 8.1 mph - N/A   Unknown
11:15 PM 19.4 °F 9.5 °F 19.4 °F 100% 29.99 in 10.0 mi SSE 8.1 mph - N/A   Unknown
11:35 PM 21.2 °F 10.1 °F 21.2 °F 100% 29.98 in 10.0 mi South 10.4 mph - N/A   Unknown
11:55 PM 21.2 °F 10.9 °F 21.2 °F 100% 29.97 in 10.0 mi South 9.2 mph - N/A   Clear